Flag for Brazil Weather past 2 weeks in Maceió, Alagoas, Brazil

Now
77 °F

Passing clouds.


Feels Like: 79 °F
Forecast: N/A
Wind: 8 mph from South

Location: Maceio Aeroporto

Current Time: Aug 30, 2015 at 8:12:40 PM

Latest Report: Aug 30, 2015 at 8:00 PM


Visibility: N/A

Pressure: 30.09 "Hg

Humidity: 79%

Dew point: 70 °F

Location of MaceióLocation

Historic Weather in Maceió — Graph

°F

Maceió temperature yesterday

Maximum temperature yesterday: 84 °F (at 12:00 PM)
Minimum temperature yesterday: 68 °F (at 12:00 AM)
Average temperature yesterday: 76 °F

Past Weeks' High & Low Weather Summary

 TemperatureHumidityPressure
High86 °F (Aug 25, 1:00 PM)100% (Aug 15, 11:00 PM)30.45 "Hg (Aug 15, 11:00 PM)
Low66 °F (Aug 24, 12:00 AM)55% (Aug 17, 11:00 AM)29.92 "Hg (Aug 22, 3:00 PM)
Average75 °F84%30.04 "Hg
* Reported Aug 15 6:00 PM — Aug 30 6:00 PM, Maceió, Weather by CustomWeather, © 2015

Note: Actual official high and low records may vary slightly from our data, if they occured in-between our weather recording intervals... More about our weather records

Advertising

Maceió weather history for previous 24 hours

 ConditionsComfort  
Time TempWeatherWind HumidityBarometerVisibility
6:00 PM
Sun, Aug 30
77 °FPassing clouds.9 mph74%30.09 "HgN/A
5:00 PM79 °FPartly sunny.10 mph70%30.07 "HgN/A
4:00 PM81 °FPartly sunny.14 mph70%30.07 "HgN/A
3:00 PM81 °FPartly sunny.14 mph66%30.07 "HgN/A
2:00 PM81 °FScattered clouds.17 mph66%30.07 "HgN/A
1:00 PM82 °FScattered clouds.15 mph58%30.09 "HgN/A
12:00 PM82 °FScattered clouds.16 mph62%30.09 "HgN/A
11:00 AM82 °FScattered showers. Scattered clouds.15 mph58%30.12 "HgN/A
10:00 AM82 °FPartly sunny.15 mph62%30.12 "HgN/A
9:00 AM81 °FPartly sunny.15 mph66%30.12 "HgN/A
8:00 AM79 °FPartly sunny.6 mph79%30.12 "HgN/A
7:00 AM73 °FScattered clouds.2 mph94%30.09 "HgN/A
6:00 AM70 °FPassing clouds.3 mph100%30.07 "HgN/A
5:00 AM72 °FPassing clouds.2 mph94%30.07 "HgN/A
4:00 AM73 °FPassing clouds.2 mph89%30.07 "HgN/A
3:00 AM75 °FPassing clouds.5 mph83%30.07 "HgN/A
2:00 AM75 °FPassing clouds.6 mph83%30.07 "HgN/A
1:00 AM75 °FPassing clouds.8 mph83%30.09 "HgN/A
12:00 AM75 °FPassing clouds.8 mph83%30.12 "HgN/A
11:00 PM
Sat, Aug 29
77 °FPassing clouds.7 mph83%30.12 "HgN/A
10:00 PM75 °FPassing clouds.2 mph89%30.12 "HgN/A
9:00 PM77 °FPassing clouds.9 mph83%30.12 "HgN/A
8:00 PM77 °FPassing clouds.7 mph83%30.09 "HgN/A
Weather by CustomWeather, © 2015

See weather overviewHow to use our weather pages